Dewpoint
69 69 69 69 69 67 66 67 68 68 67 67 66 65 66 65 64 65 68 68 69 68 67 68 67 65 63 63 60 63 64 63 61 61 61 60 59 58 55 53 52 50 56 55 51 53 56 56 56 55 54 50 50 46 48 49 50 51 51 51 50 52 54 56 54 54 54 53 51 50 50 50 48 48 46 47 50 50 56 52 53 52 54 55 62
70 71 70 70 71 67 67 68 69 69 68 68 66 64 64 66 66 67 67 69 70 68 67 65 65 64 63 62 62 62 64 64 60 59 59 60 58 47 44 50 51 50 56 57 54 53 54 57 56 53 53 53 53 49 48 46 48 48 48 49 49 50 53 52 52 53 53 53 51 52 50 49 48 50 51 51 51 52 50 49 49 51 51 55 55
72 72 71 70 70 70 70 70 69 70 69 67 64 63 65 66 66 66 67 68 69 67 65 65 65 65 65 64 63 62 62 59 58 60 61 60 55 50 50 51 50 50 49 53 52 55 54 56 55 55 52 52 52 51 50 47 47 47 48 48 48 49 50 51 52 51 51 52 53 51 52 52 52 52 53 52 57 55 54 48 44 43 45 49 54
72 72 71 69 69 68 70 69 70 71 70 68 67 66 65 68 68 68 68 67 65 66 66 66 66 68 65 64 62 62 61 60 61 61 59 58 56 56 56 56 54 53 53 53 53 55 56 56 54 54 55 55 54 50 48 49 48 48 48 49 50 49 50 50 54 54 49 49 53 51 51 52 52 52 53 54 54 55 55 55 51 48 48 47 50
71 71 71 71 71 71 71 71 71 71 69 66 66 68 68 69 70 69 67 67 69 67 68 67 67 65 60 61 60 60 60 61 61 59 57 56 58 58 59 58 56 55 54 56 57 57 57 56 54 54 55 54 53 50 50 50 50 50 48 50 50 49 48 50 51 51 52 50 49 51 52 51 52 54 54 53 53 53 57 56 55 51 48 45 47
73 72 70 70 71 71 71 71 70 70 68 66 68 70 70 71 71 70 68 69 69 68 68 66 65 63 61 61 60 61 62 61 61 58 56 57 56 55 56 56 53 53 54 56 56 59 58 55 54 58 57 57 53 54 55 53 51 49 49 50 50 49 50 51 52 53 51 51 52 47 53 49 54 56 57 57 55 55 52 53 54 53 49 47 48
73 71 69 69 71 71 71 70 70 69 68 71 71 72 71 71 72 71 71 70 68 67 67 66 64 62 61 60 60 61 62 62 61 59 59 58 59 57 55 55 54 51 52 52 53 56 58 57 59 59 60 58 56 55 53 52 51 52 53 53 50 52 53 54 53 52 53 51 50 51 52 54 57 57 58 59 59 58 57 56 55 53 54 51 52
73 72 71 70 72 71 70 71 72 72 73 73 72 72 72 73 73 72 72 70 68 66 64 62 61 61 62 62 61 62 61 58 59 61 61 60 58 56 55 53 53 52 50 50 50 54 56 55 57 58 59 61 59 57 55 54 54 51 51 53 56 55 55 53 54 56 55 54 55 55 57 58 59 60 60 60 59 58 57 57 56 56 56 56 55
73 72 72 71 72 73 73 73 73 73 73 72 72 71 72 73 72 72 71 69 68 66 64 62 62 60 60 59 59 56 54 54 56 58 57 58 59 54 51 55 55 57 57 54 54 58 58 56 57 56 60 60 60 60 59 60 57 56 57 58 58 57 57 57 56 56 57 56 57 57 56 57 57 58 58 58 58 57 59 58 58 56 57 57 57
73 73 72 72 73 74 75 74 74 74 72 72 73 72 72 72 72 72 71 70 69 67 65 63 62 61 61 59 57 54 54 56 61 60 59 56 54 54 55 56 58 57 56 56 55 57 56 56 56 58 57 59 59 58 59 60 60 59 58 58 58 58 57 57 56 55 58 58 57 56 55 55 57 57 57 58 59 60 60 60 58 59 59 58 58
73 73 72 74 75 75 74 73 73 73 73 73 73 73 74 72 71 71 69 69 68 67 65 63 62 62 58 59 57 54 55 57 62 62 60 59 55 55 56 57 57 56 55 57 57 56 55 56 55 56 58 58 58 60 61 59 60 59 60 59 59 58 58 57 55 56 57 57 57 56 55 56 56 58 57 57 57 58 59 59 59 59 59 59 57
74 74 73 74 75 73 73 72 72 72 72 72 72 72 72 72 71 70 69 68 66 63 62 62 61 59 57 58 56 55 57 62 62 61 60 60 59 59 56 55 54 55 56 56 56 56 57 56 56 57 57 58 59 59 59 59 59 59 59 59 59 58 60 60 59 58 59 58 58 57 56 56 57 58 56 56 58 58 59 59 60 59 59 58 57
74 74 74 73 73 72 72 72 72 72 71 70 69 71 70 70 70 70 68 66 64 64 64 61 60 57 57 56 55 57 57 61 62 60 60 60 59 60 55 55 53 53 56 57 57 57 58 58 58 58 56 59 60 59 59 59 59 60 60 60 60 58 58 58 59 61 60 59 58 59 57 60 58 58 58 59 61 57 58 57 59 59 60 58 57
73 73 73 72 72 72 71 71 71 71 70 70 70 72 70 69 71 70 67 66 65 63 61 62 59 59 56 55 58 59 59 60 62 60 61 59 60 60 54 53 53 54 57 58 58 58 59 60 59 58 58 58 59 58 58 59 59 60 60 59 58 57 58 57 58 60 60 59 59 59 59 60 59 60 60 61 62 58 58 60 61 59 59 59 59
72 72 71 72 72 72 72 72 72 71 70 70 70 71 70 72 72 71 68 66 65 63 61 60 59 58 56 57 57 57 58 61 62 61 60 61 61 62 53 52 52 55 57 57 59 58 60 59 59 59 58 59 59 59 59 59 59 59 59 59 57 57 58 59 58 59 59 59 58 58 58 59 59 60 60 62 62 61 59 60 61 61 60 61 59
72 71 71 71 71 71 71 71 70 70 72 70 72 72 71 72 71 69 67 65 64 62 61 59 58 56 56 56 57 57 57 60 62 62 61 59 62 53 54 53 52 54 56 58 59 60 60 60 59 58 58 60 59 60 60 60 59 59 59 60 58 57 58 58 59 59 61 61 60 60 60 59 59 61 61 61 61 62 62 61 60 61 60 58 57
71 71 71 71 71 71 70 71 70 70 70 70 71 70 71 71 71 69 67 65 63 61 61 58 58 56 57 56 56 60 60 60 60 60 61 59 60 55 54 54 55 55 56 58 58 60 59 60 59 57 57 60 59 59 59 60 60 59 59 58 58 58 58 59 58 59 60 60 61 60 61 60 60 60 60 60 61 62 61 60 59 59 59 59 57
71 71 71 71 70 71 70 71 70 70 71 70 70 70 71 71 70 68 66 65 64 63 61 60 58 58 58 56 53 59 60 60 60 59 60 58 60 55 54 54 56 57 56 58 58 59 58 60 59 58 58 59 59 59 59 60 59 59 59 58 58 58 58 58 59 59 60 60 60 60 60 60 60 60 60 60 60 61 61 59 59 60 60 60 59
71 71 71 71 71 71 71 71 71 70 70 70 70 70 70 70 69 68 67 65 65 63 60 59 58 60 60 59 57 59 58 60 57 58 59 59 59 58 56 55 55 57 56 57 57 57 58 58 60 60 59 60 58 58 58 59 58 58 58 57 56 57 56 57 59 59 61 59 61 60 61 59 61 60 61 59 60 60 62 61 62 61 60 58 58
73 71 71 71 71 71 71 71 71 70 70 70 71 70 70 69 67 67 66 64 62 60 60 58 58 59 61 62 61 60 60 61 61 56 59 58 59 59 57 55 55 56 57 57 55 57 58 58 58 60 58 58 57 56 57 58 59 59 58 57 56 56 56 58 59 59 60 60 59 59 60 60 61 61 60 61 61 62 61 61 61 61 59 59 58
73 71 71 71 71 71 71 70 70 70 70 70 72 71 69 67 67 66 64 63 61 61 60 58 59 60 62 62 63 64 63 63 62 55 56 57 58 58 57 57 56 56 57 56 55 56 57 57 58 60 57 57 56 55 55 56 59 59 58 57 57 58 59 58 59 59 59 60 59 59 59 60 60 62 61 62 63 62 63 61 62 61 61 60 58
72 72 72 71 71 71 71 71 71 70 71 72 71 70 68 68 66 65 63 62 63 62 60 60 60 61 63 62 64 64 63 61 62 58 56 56 57 58 57 58 59 59 56 56 55 56 57 57 58 59 57 56 56 54 54 56 58 57 57 55 56 58 58 59 59 58 59 59 60 58 57 60 61 59 60 62 60 59 60 60 61 62 61 61 61
71 71 71 71 71 71 70 70 70 70 70 71 70 68 68 68 66 65 64 64 63 61 60 61 61 61 61 62 63 64 64 63 60 62 60 57 57 58 58 58 57 62 55 56 56 56 57 58 58 59 56 53 52 54 54 56 57 56 54 55 56 58 59 58 58 58 60 58 58 58 58 59 59 59 61 62 61 60 60 61 60 61 61 61 62
71 70 70 71 70 70 70 70 70 70 70 71 69 68 68 66 65 64 64 63 61 60 60 60 60 59 59 60 62 62 64 62 60 57 59 59 57 56 56 55 57 60 60 58 57 56 57 58 58 56 53 51 52 54 56 58 56 54 54 56 58 57 58 58 58 59 58 57 58 57 57 59 59 62 60 60 60 60 59 59 60 60 60 60 60
70 70 70 70 70 70 70 70 70 70 69 68 67 67 67 65 63 64 64 62 61 60 59 60 60 59 59 59 61 62 62 61 61 60 55 57 58 56 56 56 57 57 62 58 58 57 58 55 54 54 55 54 55 57 58 57 56 56 57 57 56 56 57 56 58 58 58 57 57 58 58 58 61 60 60 61 61 60 59 58 59 59 59 59 59
70 70 70 70 70 70 70 70 70 70 68 66 66 66 63 61 59 60 59 58 59 57 58 55 55 57 57 58 59 61 61 60 59 59 56 55 59 58 57 59 58 59 58 58 57 59 57 56 56 56 58 58 59 59 57 57 57 56 56 56 56 55 56 56 58 58 58 57 57 56 57 60 62 63 61 61 59 58 58 58 58 58 58 58 57
70 70 70 70 70 70 69 68 67 67 66 64 62 61 59 56 57 58 58 53 55 56 57 57 56 53 54 57 59 60 60 58 56 56 57 55 55 56 59 59 59 60 55 56 56 57 57 57 57 58 59 60 60 56 55 56 56 55 55 55 56 55 55 57 58 58 57 57 58 57 57 59 61 62 59 58 58 58 58 59 57 57 57 56 55
70 70 70 70 70 69 69 69 67 66 66 65 61 58 57 58 55 56 54 52 53 53 53 53 50 50 48 54 59 58 58 54 54 53 53 53 55 54 55 55 56 56 53 55 56 58 57 55 56 57 57 56 56 54 56 56 55 55 54 55 55 56 56 56 56 57 57 57 57 59 58 58 58 58 57 57 57 57 58 58 57 57 57 56 55
71 70 70 70 70 70 69 69 68 66 66 67 67 65 63 58 59 58 62 60 57 53 52 48 48 47 47 53 55 54 53 53 55 54 58 51 58 56 53 52 51 53 58 53 58 57 56 56 56 55 55 55 54 54 54 53 54 54 54 54 54 55 55 55 55 56 57 57 57 58 56 57 58 57 57 56 57 56 57 58 58 56 56 55 54
70 71 70 70 69 69 68 68 68 67 64 64 65 61 56 51 54 59 61 59 52 48 50 56 53 49 49 52 53 50 50 52 48 45 44 44 44 44 44 43 43 51 54 50 56 56 54 54 53 53 53 53 53 53 53 52 52 52 53 54 53 53 54 54 55 55 56 56 56 56 56 56 56 56 56 56 56 56 57 57 56 56 55 53 53
69 69 69 70 69 69 68 65 66 68 66 63 62 62 60 58 46 48 55 55 49 46 46 48 52 53 60 51 52 51 50 45 43 43 43 42 42 42 41 41 41 42 45 56 56 50 52 53 53 53 52 53 53 53 53 52 52 52 52 52 52 53 53 53 54 55 54 54 55 56 56 56 56 56 55 55 55 56 56 56 56 55 54 54 54
70 70 69 69 69 69 67 67 67 68 68 66 66 64 62 61 59 47 46 49 48 45 44 42 41 45 47 53 60 54 49 44 42 42 41 42 42 41 41 41 41 42 44 47 56 49 51 52 53 52 53 53 53 54 53 52 52 52 52 52 52 52 53 53 54 55 53 54 54 55 55 55 56 56 56 56 56 55 55 55 56 56 55 54 54
70 70 70 70 69 69 68 67 67 67 66 67 67 66 65 62 62 59 58 45 46 45 43 43 41 43 44 42 41 44 48 45 41 40 41 41 41 42 43 42 41 42 44 57 49 49 50 52 53 53 53 53 54 53 53 52 52 51 51 52 52 53 53 55 55 55 54 53 53 53 54 55 55 55 55 55 55 55 55 54 54 55 55 54 54
70 70 71 70 70 69 68 68 66 67 67 67 67 66 65 65 63 63 61 57 56 50 42 42 42 41 40 40 43 43 42 42 42 42 42 42 42 42 42 55 49 43 47 59 51 51 49 52 53 53 53 54 54 53 53 53 52 52 52 52 52 53 54 55 54 53 54 53 53 53 54 54 54 54 54 54 54 54 54 54 54 54 54 53 53
70 69 68 69 70 70 69 68 67 68 67 68 68 67 66 66 65 64 63 62 60 59 56 56 46 44 57 44 41 40 41 41 43 42 42 42 44 43 43 58 59 54 57 54 52 50 50 50 52 53 53 54 53 53 53 54 53 52 52 53 53 52 53 53 52 54 53 53 53 53 53 53 53 53 54 53 53 53 53 53 53 53 54 53 52
70 70 70 70 70 70 70 69 69 68 68 68 68 68 67 66 65 64 63 63 61 58 55 55 55 51 46 44 40 40 40 41 42 42 42 41 42 42 57 53 51 53 53 52 51 51 51 50 51 53 53 55 55 54 54 54 53 53 53 53 53 52 52 52 53 53 53 53 53 53 53 53 53 53 53 53 53 53 53 53 52 53 52 52 52
69 69 70 70 70 70 70 70 69 69 67 67 68 67 67 67 66 65 64 63 62 58 55 55 55 57 55 58 52 42 41 42 42 42 41 43 39 51 53 53 51 51 52 52 52 51 51 50 51 53 54 55 54 54 54 54 53 54 53 54 54 52 52 52 53 54 53 51 52 53 53 53 53 53 52 52 52 52 52 52 52 52 52 51 52
69 69 69 69 70 70 70 70 69 67 68 68 68 67 66 66 67 65 64 64 62 58 56 57 54 53 54 56 61 56 54 45 42 41 40 40 50 56 54 54 54 52 51 52 54 51 51 51 51 53 54 55 55 55 53 54 53 53 52 54 54 54 52 53 55 54 54 53 52 53 53 52 53 52 52 52 52 52 52 52 51 51 52 51 51
70 69 68 68 68 69 69 69 69 68 67 67 66 65 65 65 66 65 64 63 62 59 56 56 55 53 53 55 60 59 59 57 55 56 57 56 55 55 54 51 52 52 53 53 52 52 51 51 52 53 54 55 55 55 54 53 52 53 53 53 52 52 52 52 53 54 52 51 51 51 52 52 52 52 52 51 52 52 52 51 51 51 50 50 50
69 69 69 68 69 69 68 68 68 68 67 67 66 65 64 65 66 65 65 64 64 60 57 56 56 57 55 56 56 58 57 55 54 55 55 54 54 54 53 52 51 50 52 55 53 53 52 52 52 53 54 55 55 55 54 53 53 52 54 52 51 52 52 52 52 52 52 52 52 52 51 52 52 52 52 52 52 52 52 51 51 51 51 50 50
67 69 69 69 68 68 69 68 68 67 67 67 66 65 64 65 65 64 65 64 64 61 58 58 57 58 56 55 53 53 57 54 55 55 55 54 53 54 54 53 51 52 52 53 54 53 53 52 52 52 52 54 54 53 54 52 52 51 51 51 52 51 51 52 52 52 52 52 52 52 52 52 52 52 51 52 52 51 51 51 51 51 51 51 51
67 67 68 69 69 69 68 67 67 68 68 68 67 66 64 63 63 63 63 63 63 61 59 58 57 58 55 53 51 50 53 53 53 54 56 54 55 54 54 53 52 50 49 51 55 55 54 55 53 52 52 53 54 52 51 52 52 51 51 51 51 51 51 50 51 52 52 52 52 52 52 52 52 52 52 52 51 52 51 51 50 51 50 50 50
66 66 68 68 68 68 67 67 67 67 67 67 67 66 66 66 64 63 63 62 62 61 60 58 57 59 60 54 54 52 54 53 55 54 55 55 54 53 53 52 51 54 52 51 51 53 54 54 54 52 52 53 53 53 50 52 52 52 51 52 51 51 51 50 51 51 51 52 52 52 53 52 52 52 52 52 52 51 51 51 50 50 50 49 49
63 63 64 66 67 68 68 67 67 67 67 67 68 67 67 66 65 65 64 64 64 63 61 60 57 57 60 56 55 55 53 53 54 54 56 56 54 53 54 55 53 51 52 53 51 54 54 54 53 53 54 53 53 53 53 52 52 52 52 52 51 51 51 51 51 51 50 50 50 51 51 52 51 51 51 51 51 50 50 50 49 48 48 47 46
55 58 57 59 62 63 64 67 66 66 67 66 67 67 67 67 65 65 64 64 63 64 63 61 59 57 56 60 60 57 55 54 54 54 54 55 55 53 51 52 54 54 50 52 54 56 55 54 55 54 54 53 52 53 52 53 52 53 50 53 52 51 51 52 52 52 52 51 49 51 49 51 50 50 49 49 50 49 48 49 49 48 47 46 46
56 57 56 56 57 59 60 62 64 65 65 64 65 65 65 65 66 66 65 65 64 64 63 63 61 59 57 56 57 58 56 55 54 54 55 54 54 53 53 52 55 54 51 52 53 54 55 56 55 54 54 54 53 53 54 52 51 52 52 53 52 52 51 51 52 52 51 50 50 49 49 49 50 49 50 49 48 48 48 48 49 47 47 46 46
56 55 54 56 56 59 61 64 62 62 63 63 64 64 64 64 65 65 65 65 65 64 63 63 62 60 58 57 56 57 56 55 54 54 56 57 56 54 54 55 54 54 52 52 55 54 57 56 54 55 55 53 53 54 53 51 52 51 52 51 53 52 52 52 53 52 52 51 49 48 49 48 48 49 47 48 47 47 48 47 47 47 47 47 46
54 52 54 57 56 56 58 60 60 62 62 63 63 64 63 63 63 65 64 64 65 65 64 63 63 62 60 58 57 57 56 57 56 55 55 55 55 55 54 55 55 53 54 54 53 53 55 56 55 55 55 55 54 52 53 53 53 54 53 54 55 57 54 53 54 53 52 53 51 51 50 48 47 48 47 48 48 46 47 45 46 46 46 45 46
52 52 54 56 58 58 59 59 60 60 61 62 62 62 63 62 62 64 63 64 64 65 65 64 64 63 62 61 59 61 58 59 57 55 54 54 56 57 54 55 55 54 53 55 53 53 56 56 56 56 55 55 54 53 53 54 53 53 53 54 53 47 50 49 50 54 54 52 52 50 50 50 50 50 50 49 48 48 46 47 48 47 46 46 46
54 55 55 55 57 58 60 60 61 61 60 60 61 61 61 62 62 63 64 64 64 64 64 64 64 64 64 62 61 60 59 62 60 56 55 56 55 54 54 56 56 55 54 54 55 54 54 56 57 56 56 56 55 54 54 53 53 52 53 55 47 48 49 50 49 48 54 52 50 50 49 49 49 49 48 48 48 48 48 47 47 47 47 46 47
55 54 53 55 58 58 58 58 59 59 60 60 60 60 60 60 61 62 62 63 64 64 63 63 64 64 64 63 62 62 61 61 61 63 59 56 56 55 56 56 55 55 55 55 54 54 54 56 56 57 56 56 55 53 53 52 53 54 52 48 47 47 48 48 52 48 47 45 53 49 48 48 49 48 47 46 47 47 47 46 46 46 47 45 45